PSMAS SEGS-MDPC

Flight info

Callsign PSMAS
Flight time N/A
Altitude 45000
Route REDUS DCT UGADI DCT EVRET DCT TBG UM525 VESKA VESKA2B
Aircraft C700/M-SBDE2E3GHIJ3J4J7M3P2RWXYZ/LB1D1

Departure

Time 2026-05-01 14:00
Airport Seymour Galapagos Ecological Airport (SEGS)

Arrival

Time N/A
Airport Punta Cana International Airport (MDPC)
Time Latitude Longitude Altitude Speed Heading
2026-05-01 13:54 -0.44587 -90.27018 148 ft 0 kts 50°
2026-05-01 13:59 -0.44580 -90.27020 153 ft 2 kts 337°
2026-05-01 13:59 -0.44532 -90.27063 152 ft 17 kts 318°
2026-05-01 13:59 -0.44503 -90.27171 148 ft 23 kts 237°
2026-05-01 13:59 -0.44600 -90.27147 152 ft 37 kts 146°
2026-05-01 14:00 -0.44977 -90.26883 166 ft 111 kts 142°
2026-05-01 14:00 -0.45797 -90.26306 360 ft 168 kts 147°
2026-05-01 14:00 -0.46781 -90.25641 1365 ft 180 kts 146°
2026-05-01 14:00 -0.47817 -90.24822 2409 ft 195 kts 141°
2026-05-01 14:01 -0.48705 -90.23739 3455 ft 215 kts 121°
2026-05-01 14:01 -0.49228 -90.22247 4310 ft 243 kts 101°
2026-05-01 14:01 -0.49442 -90.20458 5206 ft 267 kts 97°
2026-05-01 14:01 -0.49688 -90.18603 6509 ft 270 kts 98°
2026-05-01 14:02 -0.49953 -90.16728 7741 ft 275 kts 98°
2026-05-01 14:02 -0.50115 -90.14806 8932 ft 281 kts 88°
2026-05-01 14:02 -0.49828 -90.12862 10115 ft 286 kts 81°
2026-05-01 14:02 -0.49515 -90.10815 10799 ft 310 kts 83°
2026-05-01 14:03 -0.49220 -90.08664 11942 ft 313 kts 82°
2026-05-01 14:03 -0.48895 -90.06499 13131 ft 317 kts 82°
2026-05-01 14:03 -0.48557 -90.04307 14220 ft 321 kts 81°
2026-05-01 14:03 -0.48227 -90.02098 15269 ft 323 kts 81°
2026-05-01 14:04 -0.47896 -89.99873 16290 ft 325 kts 81°
2026-05-01 14:04 -0.47561 -89.97626 17298 ft 329 kts 81°
2026-05-01 14:04 -0.47220 -89.95359 18278 ft 331 kts 80°
2026-05-01 14:04 -0.46993 -89.93844 18794 ft 335 kts 81°
2026-05-01 14:05 -0.46531 -89.90753 19729 ft 344 kts 81°
2026-05-01 14:05 -0.46175 -89.88372 20436 ft 350 kts 81°
2026-05-01 14:05 -0.45811 -89.85946 21126 ft 356 kts 81°
2026-05-01 14:05 -0.45442 -89.83475 21799 ft 363 kts 82°
2026-05-01 14:06 -0.45065 -89.80960 22460 ft 369 kts 82°
2026-05-01 14:06 -0.44683 -89.78406 23116 ft 375 kts 82°
2026-05-01 14:06 -0.44319 -89.75806 23694 ft 381 kts 85°
2026-05-01 14:06 -0.44230 -89.73143 24214 ft 386 kts 89°
2026-05-01 14:07 -0.44139 -89.70444 24744 ft 391 kts 88°
2026-05-01 14:07 -0.44019 -89.67711 25290 ft 396 kts 88°
2026-05-01 14:07 -0.43916 -89.64943 25803 ft 401 kts 89°
2026-05-01 14:08 -0.43728 -89.59281 26747 ft 414 kts 88°
2026-05-01 14:08 -0.43618 -89.56394 27210 ft 421 kts 88°
2026-05-01 14:08 -0.43510 -89.53442 27667 ft 427 kts 88°
2026-05-01 14:08 -0.43406 -89.50461 28168 ft 432 kts 88°
2026-05-01 14:09 -0.43300 -89.47452 28688 ft 436 kts 88°
2026-05-01 14:09 -0.43190 -89.44408 29170 ft 440 kts 88°
2026-05-01 14:09 -0.43078 -89.41333 29632 ft 445 kts 88°
2026-05-01 14:09 -0.42969 -89.38264 30066 ft 450 kts 88°
2026-05-01 14:10 -0.42858 -89.35125 30493 ft 454 kts 88°
2026-05-01 14:10 -0.42744 -89.31960 30930 ft 458 kts 88°
2026-05-01 14:10 -0.42629 -89.28770 31346 ft 461 kts 88°
2026-05-01 14:10 -0.42514 -89.25558 31763 ft 464 kts 89°
2026-05-01 14:11 -0.42399 -89.22325 32146 ft 468 kts 89°
2026-05-01 14:11 -0.42164 -89.15791 32896 ft 473 kts 89°
2026-05-01 14:11 -0.42047 -89.12503 33383 ft 473 kts 89°
2026-05-01 14:12 -0.41929 -89.09224 33904 ft 472 kts 89°
2026-05-01 14:12 -0.41811 -89.05951 34329 ft 472 kts 89°
2026-05-01 14:12 -0.41694 -89.02678 34754 ft 471 kts 89°
2026-05-01 14:12 -0.41593 -88.99851 35134 ft 471 kts 89°
2026-05-01 14:13 -0.41475 -88.96580 35575 ft 471 kts 89°
2026-05-01 14:13 -0.41396 -88.94417 35868 ft 471 kts 90°
2026-05-01 14:13 -0.41239 -88.90047 36433 ft 471 kts 90°
2026-05-01 14:13 -0.41121 -88.86779 36828 ft 471 kts 90°
2026-05-01 14:14 -0.41003 -88.83511 37219 ft 470 kts 90°
2026-05-01 14:14 -0.40885 -88.80248 37581 ft 470 kts 90°
2026-05-01 14:14 -0.40769 -88.77025 37927 ft 470 kts 90°
2026-05-01 14:14 -0.40651 -88.73763 38246 ft 470 kts 90°
2026-05-01 14:15 -0.40533 -88.70497 38547 ft 471 kts 90°
2026-05-01 14:15 -0.40414 -88.67226 38806 ft 470 kts 90°
2026-05-01 14:15 -0.40297 -88.63961 39054 ft 470 kts 90°
2026-05-01 14:15 -0.40179 -88.60701 39303 ft 470 kts 90°
2026-05-01 14:16 -0.40059 -88.57400 39529 ft 469 kts 90°
2026-05-01 14:16 -0.39943 -88.54187 39744 ft 469 kts 90°
2026-05-01 14:16 -0.39826 -88.50938 39954 ft 468 kts 90°
2026-05-01 14:16 -0.39708 -88.47687 40160 ft 468 kts 90°
2026-05-01 14:17 -0.39591 -88.44442 40352 ft 468 kts 90°
2026-05-01 14:17 -0.39474 -88.41195 40544 ft 467 kts 90°
2026-05-01 14:17 -0.39356 -88.37954 40728 ft 467 kts 90°
2026-05-01 14:17 -0.39239 -88.34714 40903 ft 467 kts 90°
2026-05-01 14:18 -0.39122 -88.31477 41073 ft 466 kts 90°
2026-05-01 14:18 -0.39005 -88.28242 41232 ft 466 kts 90°
2026-05-01 14:18 -0.38888 -88.25007 41390 ft 466 kts 90°
2026-05-01 14:18 -0.38811 -88.22869 41492 ft 465 kts 90°
2026-05-01 14:19 -0.38654 -88.18550 41687 ft 465 kts 90°
2026-05-01 14:19 -0.38538 -88.15326 41832 ft 464 kts 90°
2026-05-01 14:19 -0.38421 -88.12102 41961 ft 464 kts 90°
2026-05-01 14:19 -0.38304 -88.08880 42090 ft 464 kts 90°
2026-05-01 14:20 -0.38188 -88.05662 42219 ft 463 kts 90°
2026-05-01 14:20 -0.37955 -87.99230 42449 ft 463 kts 90°
2026-05-01 14:20 -0.37836 -87.96019 42559 ft 463 kts 89°
2026-05-01 14:21 -0.37406 -87.92833 42658 ft 464 kts 77°
2026-05-01 14:21 -0.34975 -87.86882 42846 ft 464 kts 57°
2026-05-01 14:22 -0.30795 -87.82033 43048 ft 460 kts 40°
2026-05-01 14:22 -0.28451 -87.79914 43130 ft 460 kts 40°
2026-05-01 14:22 -0.23729 -87.75604 43309 ft 460 kts 40°
2026-05-01 14:23 -0.19000 -87.71305 43470 ft 459 kts 40°
2026-05-01 14:23 -0.14287 -87.67011 43620 ft 458 kts 40°
2026-05-01 14:24 -0.09576 -87.62724 43757 ft 458 kts 40°
2026-05-01 14:24 -0.04871 -87.58440 43880 ft 457 kts 40°
2026-05-01 14:25 -0.00174 -87.54164 43996 ft 457 kts 40°
2026-05-01 14:25 0.03730 -87.50611 44077 ft 456 kts 41°
2026-05-01 14:26 0.06076 -87.48474 44193 ft 454 kts 41°
2026-05-01 14:26 0.11411 -87.43617 44910 ft 441 kts 40°
2026-05-01 14:27 0.15247 -87.40129 44912 ft 456 kts 41°
2026-05-01 14:27 0.20026 -87.35774 44929 ft 474 kts 41°
2026-05-01 14:28 0.24985 -87.31263 44928 ft 490 kts 41°
2026-05-01 14:28 0.27528 -87.28946 44923 ft 499 kts 41°
2026-05-01 14:28 0.32738 -87.24203 44928 ft 515 kts 41°
2026-05-01 14:29 0.38101 -87.19320 44934 ft 529 kts 41°
2026-05-01 14:30 0.46414 -87.11751 44929 ft 548 kts 41°
2026-05-01 14:30 0.49247 -87.09173 44927 ft 554 kts 41°
2026-05-01 14:31 0.57841 -87.01347 44926 ft 557 kts 41°
2026-05-01 14:31 0.63574 -86.96128 44932 ft 557 kts 41°
2026-05-01 14:32 0.69297 -86.90916 44931 ft 557 kts 41°
2026-05-01 14:32 0.74987 -86.85736 44933 ft 557 kts 41°
2026-05-01 14:33 0.80704 -86.80530 44933 ft 556 kts 41°
2026-05-01 14:33 0.86423 -86.75321 44932 ft 556 kts 41°
2026-05-01 14:34 0.92142 -86.70114 44931 ft 556 kts 41°
2026-05-01 14:34 0.97854 -86.64912 44928 ft 555 kts 41°
2026-05-01 14:35 1.03564 -86.59711 44933 ft 555 kts 41°
2026-05-01 14:35 1.09270 -86.54514 44930 ft 555 kts 41°
2026-05-01 14:36 1.14974 -86.49319 44929 ft 555 kts 41°
2026-05-01 14:36 1.20671 -86.44129 44930 ft 554 kts 41°
2026-05-01 14:37 1.26367 -86.38941 44927 ft 554 kts 41°
2026-05-01 14:37 1.32056 -86.33757 44928 ft 553 kts 41°
2026-05-01 14:38 1.37740 -86.28580 44930 ft 552 kts 41°
2026-05-01 14:38 1.43300 -86.23277 44926 ft 552 kts 46°
2026-05-01 14:39 1.48479 -86.17677 44922 ft 552 kts 46°
2026-05-01 14:39 1.53661 -86.12150 44922 ft 551 kts 46°
2026-05-01 14:40 1.58789 -86.06630 44920 ft 551 kts 46°
2026-05-01 14:40 1.64094 -86.00951 44924 ft 551 kts 46°
2026-05-01 14:41 1.69306 -85.95352 44924 ft 550 kts 46°
2026-05-01 14:41 1.74519 -85.89763 44924 ft 549 kts 46°
2026-05-01 14:42 1.79718 -85.84182 44926 ft 548 kts 46°
2026-05-01 14:42 1.84911 -85.78611 44925 ft 548 kts 46°
2026-05-01 14:43 1.90100 -85.73041 44923 ft 547 kts 46°
2026-05-01 14:43 1.95280 -85.67482 44918 ft 546 kts 46°
2026-05-01 14:44 2.00416 -85.61968 44919 ft 545 kts 46°
2026-05-01 14:44 2.08161 -85.53654 44916 ft 544 kts 46°
2026-05-01 14:45 2.15893 -85.45352 44913 ft 543 kts 46°
2026-05-01 14:46 2.21044 -85.39821 44913 ft 542 kts 46°
2026-05-01 14:46 2.28751 -85.31544 44914 ft 542 kts 46°
2026-05-01 14:47 2.33882 -85.26031 44914 ft 541 kts 46°
2026-05-01 14:48 2.41568 -85.17775 44913 ft 540 kts 46°
2026-05-01 14:48 2.49237 -85.09535 44910 ft 539 kts 46°
2026-05-01 14:49 2.59448 -84.98561 44913 ft 538 kts 46°
2026-05-01 14:50 2.69647 -84.87597 44910 ft 538 kts 46°
2026-05-01 14:51 2.77297 -84.79370 44909 ft 538 kts 46°
2026-05-01 14:52 2.84904 -84.71190 44911 ft 538 kts 46°
2026-05-01 14:53 2.92544 -84.62972 44904 ft 537 kts 46°
2026-05-01 14:53 2.97636 -84.57494 44908 ft 537 kts 46°
2026-05-01 14:54 3.02719 -84.52022 44902 ft 536 kts 46°
2026-05-01 14:54 3.07793 -84.46565 44905 ft 534 kts 46°
2026-05-01 14:55 3.12850 -84.41118 44906 ft 534 kts 46°
2026-05-01 14:55 3.17897 -84.35687 44904 ft 532 kts 46°
2026-05-01 14:56 3.22929 -84.30269 44902 ft 530 kts 46°
2026-05-01 14:56 3.27937 -84.24875 44903 ft 529 kts 46°
2026-05-01 14:57 3.32938 -84.19490 44899 ft 527 kts 46°
2026-05-01 14:57 3.40407 -84.11445 44900 ft 525 kts 46°
2026-05-01 14:58 3.45378 -84.06088 44904 ft 525 kts 46°
2026-05-01 14:58 3.50332 -84.00750 44901 ft 524 kts 46°
2026-05-01 14:59 3.55319 -83.95372 44903 ft 523 kts 46°
2026-05-01 14:59 3.60269 -83.90040 44901 ft 522 kts 46°
2026-05-01 15:00 3.67636 -83.82095 44900 ft 521 kts 46°
2026-05-01 15:01 3.72554 -83.76792 44904 ft 519 kts 46°
2026-05-01 15:01 3.77465 -83.71493 44906 ft 518 kts 46°
2026-05-01 15:02 3.82372 -83.66200 44901 ft 519 kts 46°
2026-05-01 15:02 3.87281 -83.60904 44903 ft 519 kts 46°
2026-05-01 15:03 3.92188 -83.55607 44904 ft 519 kts 46°
2026-05-01 15:03 3.97097 -83.50308 44900 ft 519 kts 46°
2026-05-01 15:04 4.02008 -83.45006 44906 ft 519 kts 46°
2026-05-01 15:04 4.06921 -83.39701 44910 ft 520 kts 46°
2026-05-01 15:05 4.11808 -83.34423 44913 ft 520 kts 46°
2026-05-01 15:05 4.16736 -83.29098 44915 ft 522 kts 46°
2026-05-01 15:06 4.21671 -83.23766 44921 ft 522 kts 46°
2026-05-01 15:06 4.26621 -83.18420 44919 ft 524 kts 46°
2026-05-01 15:07 4.31579 -83.13056 44923 ft 526 kts 46°
2026-05-01 15:07 4.36558 -83.07676 44919 ft 527 kts 46°
2026-05-01 15:08 4.41548 -83.02278 44929 ft 529 kts 46°
2026-05-01 15:08 4.46556 -82.96863 44927 ft 530 kts 46°
2026-05-01 15:09 4.51623 -82.91481 44921 ft 531 kts 43°
2026-05-01 15:09 4.57424 -82.86887 44919 ft 532 kts 37°
2026-05-01 15:10 4.63257 -82.82322 44916 ft 532 kts 37°
2026-05-01 15:10 4.72049 -82.75509 44914 ft 533 kts 37°
2026-05-01 15:11 4.80839 -82.68671 44912 ft 533 kts 37°
2026-05-01 15:12 4.86702 -82.64107 44916 ft 534 kts 37°
2026-05-01 15:12 4.95469 -82.57290 44917 ft 534 kts 37°
2026-05-01 15:14 5.10160 -82.45855 44913 ft 535 kts 37°
2026-05-01 15:14 5.18997 -82.38973 44911 ft 537 kts 37°
2026-05-01 15:15 5.29802 -82.30556 44919 ft 538 kts 38°
2026-05-01 15:16 5.41634 -82.21335 44922 ft 539 kts 38°
2026-05-01 15:18 5.56297 -82.09901 44917 ft 540 kts 38°
2026-05-01 15:19 5.68178 -82.00630 44921 ft 541 kts 38°
2026-05-01 15:19 5.77060 -81.93697 44924 ft 542 kts 38°
2026-05-01 15:20 5.85982 -81.86729 44919 ft 542 kts 38°
2026-05-01 15:21 5.91936 -81.82077 44920 ft 542 kts 38°
2026-05-01 15:21 5.97890 -81.77425 44919 ft 542 kts 38°
2026-05-01 15:22 6.06818 -81.70446 44917 ft 542 kts 38°
2026-05-01 15:22 6.12769 -81.65792 44915 ft 542 kts 38°
2026-05-01 15:23 6.18716 -81.61141 44919 ft 542 kts 38°
2026-05-01 15:23 6.24659 -81.56490 44914 ft 541 kts 38°
2026-05-01 15:24 6.30602 -81.51839 44916 ft 541 kts 38°
2026-05-01 15:24 6.36545 -81.47187 44916 ft 542 kts 38°
2026-05-01 15:25 6.42490 -81.42531 44917 ft 542 kts 38°
2026-05-01 15:25 6.48439 -81.37870 44910 ft 543 kts 38°
2026-05-01 15:26 6.54359 -81.33231 44915 ft 543 kts 38°
2026-05-01 15:26 6.60322 -81.28556 44914 ft 544 kts 38°
2026-05-01 15:27 6.66299 -81.23869 44917 ft 545 kts 38°
2026-05-01 15:28 6.75281 -81.16825 44915 ft 546 kts 38°
2026-05-01 15:28 6.81272 -81.12123 44914 ft 546 kts 38°
2026-05-01 15:29 6.90255 -81.05070 44915 ft 546 kts 38°
2026-05-01 15:30 7.02244 -80.95653 44913 ft 547 kts 38°
2026-05-01 15:31 7.20219 -80.81521 44914 ft 548 kts 38°
2026-05-01 15:32 7.32244 -80.72059 44926 ft 549 kts 38°
2026-05-01 15:34 7.50291 -80.57846 44927 ft 549 kts 38°